Hobart International Airport

Airport
ICAO code: 
YMHB
IATA Code: 
HBA
Summary
ICAO Region: 
APAC
Territory: 
Location: 
Cambridge, Tasmania
Serving: 
Hobart
Elevation: 
13 ft
Coordinates: 
Aerial View: 
42° 50' 13.475" S, 147° 30' 19.547" E
Metar
Observation
YMHB 061200Z 35010KT 9999 FEW053 OVC250 17/12 Q1008
Station
Hobart Airport
Date/Time
2021-12-06 12:00:00
Wind direction
350°
Wind speed
10 kts
Lowest cloud amount
few clouds
Temperature
17°C
Dew point
12°C
Humidity
72%
QNH
1008 hPa
Weather condition
n/a

Hobart International Airport is an airport located in Cambridge, 17 kilometres east of Hobart, Tasmania.

Climatology

Mild temperate oceanic climate (Köppen climate classification Cfb).

Runways

Designator Length Width Surface Rops
12/30 2251 45 ASP Yes/Yes
Airport map: 
Aerial View: 

Accidents and Serious Incidents at or in the vicinity of YMHB

SKYbrary Partners:

Safety knowledge contributed by: